This is the latest recevied weather packets stored in our database for station/object SV6DBG-10. If no packets are shown the sender has not sent any weather packets the latest 1 day(s).
| Time | Temp. | Humidity | Pressure | Rain* | Wind** | Luminosity | Snow |
|---|---|---|---|---|---|---|---|
| 1777876164 | 18.89° C | 34% | 1023.2 hPa | - | - | - | - |
| 1777875264 | 15.56° C | 40% | 1023.3 hPa | - | - | - | - |
| 1777874364 | 17.22° C | 38% | 1023.3 hPa | - | - | - | - |
| 1777873464 | 19.44° C | 34% | 1023.2 hPa | - | - | - | - |
| 1777872564 | 15.56° C | 42% | 1023.2 hPa | - | - | - | - |
| 1777871658 | 11.11° C | 57% | 1023.2 hPa | - | - | - | - |
| 1777870758 | 9.44° C | 61% | 1023.2 hPa | - | - | - | - |
| 1777869858 | 10° C | 60% | 1023.1 hPa | - | - | - | - |
| 1777868957 | 13.89° C | 48% | 1022.9 hPa | - | - | - | - |
| 1777868057 | 7.78° C | 71% | 1022.9 hPa | - | - | - | - |
| 1777867157 | 7.22° C | 72% | 1022.9 hPa | - | - | - | - |
| 1777866257 | 6.67° C | 72% | 1022.7 hPa | - | - | - | - |
| 1777865356 | 7.22° C | 71% | 1022.5 hPa | - | - | - | - |
| 1777864456 | 7.78° C | 70% | 1022.4 hPa | - | - | - | - |
| 1777863556 | 7.78° C | 71% | 1022.3 hPa | - | - | - | - |
| 1777862656 | 8.33° C | 68% | 1022.3 hPa | - | - | - | - |
| 1777861756 | 7.78° C | 71% | 1022.2 hPa | - | - | - | - |
| 1777860856 | 7.78° C | 70% | 1022.2 hPa | - | - | - | - |
| 1777859955 | 8.89° C | 69% | 1022.1 hPa | - | - | - | - |
| 1777859055 | 8.33° C | 65% | 1022.2 hPa | - | - | - | - |
| 1777858155 | 8.33° C | 65% | 1022.1 hPa | - | - | - | - |
| 1777857255 | 8.33° C | 63% | 1022.1 hPa | - | - | - | - |
| 1777856355 | 7.78° C | 61% | 1022 hPa | - | - | - | - |
| 1777855455 | 7.78° C | 62% | 1022.1 hPa | - | - | - | - |
| 1777854554 | 7.78° C | 66% | 1022.1 hPa | - | - | - | - |
* Rain since midnight (hover to see other rain measurements)
** Current wind speed in m/s (hover to see current wind gust speed)